STARLINK-1170 (45073 NORAD) Tracking and Keplerian Element Data

This shows tracking and keplerian element data for the satellite.

Feedback or suggestion? Click here.




ElementValue
Catalog45073
NameSTARLINK-1170
Epoch Orbit182
Epoch Day47.83334491
Epoch Year2020
RAAN143.8628
Inclination52.9966
Eccentricity0.0009187
Argument of Perigee318.7278
Mean Anonmoly271.7032
Mean Motion15.90136962
Decay Rate-0.00011943
L11 45073U 20006AF 20047.83334491 -.00011943 11061-4 -27237-4 0 9993
L22 45073 52.9966 143.8628 0009187 318.7278 271.7032 15.90136962 1826

Live tracking and technical data element details for STARLINK-1170 (NORAD 45073). STARLINK-1170 can be tracked NOW for your location showing map with azimuth and elevation plus other details from your city location.

Track the satellite on the map from your city or location and see movement details for azimuth, elevation, latitude, longitude, range, height, and movement on the map or in text.







IsCatalogInMostPopularTable: catalog: 45073, numindb: -1

Insert: records affected: 1


GetName: 45073 STARLINK-1170

Hit Count: inserted at: Tue, 18 Feb 2020 00:49:35 GMT